Content
SEND FEEDBACK

Daily
Averages
Monthly
Summary
Canada

PELEE ISLAND, ONTARIO


Home > North America > Canada > Ontario
Elevation: 571 feet     Latitude: 41 46N     Longitude: 082 40W

WEATHER
 
SELECT A DAY
Number of Records: 122,493;   Date Range: 12/10/00 - 7/22/14
 
SHARE

PRINT THIS DATA

[ ← Previous Day ]
WEATHER ALMANAC - SEPTEMBER 21, 2013
[ Next Day → ]
[ °C ]   °F
Weather ElementAverageHighLow
Temperature63.6 °F68.5 °F (4:00 pm)57 °F (10:00 pm)
Dewpoint55.2 °F66 °F (1:00 am)45.5 °F (7:00 pm)
Humidity75 %95 % (5:00 am)48 % (7:00 pm)
Barometer29.71 in29.82 in (11:00 pm)29.64 in (5:00 am)
Wind Speed5.5 mph9.2 mph (12:00 pm)
Weather ElementAverage
Wind DirectionWNW (288.1 °)

Weather ElementTotal
Precipitation0.74 in
Heating Degree Days2.3 (Base 65)
Growing Degree Days12.8 (Base 50)
Averaged from 26 records on September 21, 2013
WEATHER CONDITIONS BREAKOUT
WIND DIRECTION BREAKOUT
WEATHER BY HOUR - SEPTEMBER 21, 2013
[ °C ]   °F
Local TimeTemperatureDewpointHumidityBarometerVisibilityWind DirectionWind SpeedGust SpeedPrecipitationEventsConditions
1:00 AM67.8 °F66.0 °F94 %29.70 inSSW (210°)5.8 mph0.09 in
2:00 AM64.6 °F62.1 °F92 %29.69 inWNW (300°)5.8 mph0.30 in
3:00 AM63.1 °F61.2 °F93 %29.69 inWNW (300°)1.2 mph0.16 in
4:00 AM63.3 °F61.7 °F94 %29.68 inWSW (250°)2.3 mph0.07 in
5:00 AM63.9 °F62.4 °F95 %29.64 inSSE (160°)1.2 mph0.11 in
6:00 AM64.6 °F63.0 °F94 %29.65 inWest (280°)5.8 mph0.01 in
7:00 AM63.1 °F60.6 °F91 %29.65 inWNW (300°)5.8 mph
8:00 AM62.0 °F59.0 °F88 %29.67 inWNW (300°)4.6 mph
8:00 AM61.7 °F59.4 °F92 %29.67 inWNW (300°)4.6 mph
9:00 AM61.0 °F58.5 °F91 %29.67 inWNW (290°)5.8 mph
10:00 AM60.8 °F57.7 °F90 %29.68 inWNW (300°)8.1 mph
11:00 AM60.8 °F57.2 °F88 %29.69 inNW (310°)6.9 mph
12:00 PM63.9 °F57.0 °F78 %29.68 inWNW (300°)9.2 mph
1:00 PM67.1 °F55.9 °F67 %29.68 inNNW (340°)5.8 mph
2:00 PM67.0 °F56.0 °F61 %29.69 inNNW (330°)6.9 mph
2:00 PM67.3 °F56.5 °F68 %29.69 inNNW (330°)6.9 mph
3:00 PM67.6 °F54.0 °F61 %29.70 inNW (310°)8.1 mph
4:00 PM68.5 °F51.1 °F54 %29.70 inNNW (340°)5.8 mph
5:00 PM68.0 °F49.6 °F52 %29.71 inNW (320°)5.8 mph
6:00 PM66.2 °F47.8 °F52 %29.73 inNW (310°)6.9 mph
7:00 PM65.5 °F45.5 °F48 %29.74 inNW (310°)6.9 mph
8:00 PM60.0 °F46.0 °F50 %29.76 inNW (310°)4.6 mph
8:00 PM60.4 °F46.2 °F59 %29.76 inNW (310°)4.6 mph
9:00 PM60.4 °F45.9 °F59 %29.78 inNW (320°)4.6 mph
10:00 PM57.0 °F47.3 °F70 %29.81 inNorth (350°)3.5 mph
11:00 PM58.1 °F48.2 °F70 %29.82 inNorth (10°)4.6 mph
Hourly data recorded from CXHA, located miles away from Pelee Island, Ontario







STORIES FROM OUR PARTNERS